www.pogodaiklimat.ru

ПОГОДА в Surabaya Gedangan

  • Прогноз погоды в Surabaya Gedangan
  • Монитор погоды в Surabaya Gedangan
  • Климат города

АРХИВ ПОГОДЫ в Surabaya Gedangan

Время (UTC), дата Ветер
(напр.,м/с)
 
Видим.   Явления Облачность Т
(С)
Тd
(С)
f
(%)
Тe
(С)
Тes
(С)
Комфортность P
(гПа)
Po
(гПа)
Тmin
(С)
Tmax
(С)
R
(мм)
S
(см)
09 10.01 С 4 10 км 5/0
[Cu med, cong As trans Ci fib]
+33.1 +23.6 58 +44 +46 опасность
перегрева
1005.6 1005.2
12 10.01 ЮЗ 2 8000 м {дождь} 9/0
[Cu med, cong As op Cs]
+28.8 +24.5 78 +41 +41 опасность
перегрева
1008.6 1008.2 +35.7
15 10.01 штиль 0 8000 м 5/3 600 м
[Cu hum As trans Ci fib]
+28.2 +24.3 79 +39 +39 очень
душно
1009.9 1009.6
18 10.01 Ю 1 8000 м 5/3 600 м
[Cu hum As trans Ci fib]
+27.8 +24.7 83 +39 +39 очень
душно
1008.5 1008.1
21 10.01 З 1 9000 м 4/3 600 м
[Cu hum Ci fib]
+27.0 +24.5 86 +38 +38 очень
душно
1007.7 1007.3
00 11.01 ЮЗ 1 10 км 5/3 600 м
[Cu hum As trans Ci fib]
+27.9 +25.0 84 +40 +43 очень
душно
1009.2 1008.8 +26.7
03 11.01 СЗ 3 10 км 5/0
[Cu med, cong Ac trans Ci fib]
+32.7 +24.9 64 +46 +59 опасность
перегрева
1009.1 1008.8
06 11.01 СЗ 3 11 км 8/0
[Cu med, cong Ac lent Ci fib]
+35.2 +25.0 56 +49 +58 опасность
перегрева
1006.5 1006.2
09 11.01 СЗ 5 10 км 8/0
[Cu med, cong As op Ci fib]
+32.7 +25.7 67 +48 +49 опасность
перегрева
1004.5 1004.1
12 11.01 З 2 10 км 8/0
[Cu med, cong As op Ci fib]
+28.4 +23.7 76 +39 +39 очень
душно
1007.5 1007.2 +35.3
15 11.01 штиль 0 9000 м в посл. час дождь {гроза, туман} 5/3 600 м
[Cu hum As trans Ci fib]
+27.7 +24.2 81 +39 +39 очень
душно
1009.3 1008.9
18 11.01 З 2 9000 м {гроза, туман} 4/0
[Ci fib]
+27.1 +24.1 84 +38 +38 очень
душно
1008.2 1007.8
21 11.01 З 2 8000 м 5/5
[Cu hum Ac trans Ci fib]
+26.5 +24.2 87 +37 +37 очень
душно
1007.3 1007.0
00 12.01 штиль 0 7000 м 5/0 2000 м
[Ac trans Ci fib]
+26.8 +24.7 88 +38 +42 очень
душно
1008.8 1008.4 +26.3
03 12.01 СЗ 3 10 км 5/0
[Cu med, cong Ac trans Ci fib]
+33.0 +24.4 61 +46 +58 опасность
перегрева
1008.4 1008.1
06 12.01 З 3 11 км 5/0
[Cu med, cong Ac trans Cs]
+35.4 +24.9 55 +49 +61 опасность
перегрева
1005.8 1005.5
09 12.01 С 4 8000 м гроза, ливневой дождь 10/0
[Cb cap As op]
+31.8 +26.5 74 +49 +49 опасность
перегрева
1004.4 1004.1
12 12.01 ЮЗ 2 6000 м гроза, ливневой дождь 10/0
[Cb cap As op]
+24.2 +24.1 99 +33 +33 очень
душно
1008.3 1007.9 +36.1
15 12.01 Ю 1 6000 м слабый дождь {гроза} 10/0
[Cu med, cong As op]
+24.4 +24.3 99 +34 +34 очень
душно
1008.9 1008.5
18 12.01 штиль 0 7000 м в посл. час дождь {гроза} 10/0
[Cu med, cong As op]
+24.0 +23.4 96 +32 +32 очень
душно
1007.3 1007.0
21 12.01 З 1 8000 м 9/4 600 м
[Cu hum As trans Ci fib]
+24.4 +23.8 96 +33 +33 очень
душно
1007.0 1006.7
00 13.01 ЮЗ 1 9000 м 9/5 600 м
[Sc Ac trans Ci fib]
+25.2 +24.6 96 +35 +37 очень
душно
1008.4 1008.1 +24.1
03 13.01 З 2 10 км 5/4
[Cu hum Ac trans Ci fib]
+30.0 +24.8 74 +43 +53 опасность
перегрева
1008.0 1007.6
06 13.01 СЗ 3 10 км 9/6 600 м
[Cu Sc Ac trans Ci fib]
+32.6 +25.1 65 +47 +51 опасность
перегрева
1006.9 1006.6
09 13.01 С 2 10 км 8/5 600 м
[Cu hum Ac trans Ci fib]
+32.6 +25.6 67 +48 +49 опасность
перегрева
1005.5 1005.1
12 13.01 СЗ 2 6000 м слабый дождь {гроза} 9/0 600 м
[Cu med, cong Ac As]
+25.4 +23.4 89 +34 +34 очень
душно
1008.6 1008.2 +36.2
15 13.01 З 2 7000 м {дождь} 10/0
[Ac As]
+25.3 +23.3 89 +34 +34 очень
душно
1008.5 1008.1
18 13.01 СЗ 2 7000 м {дождь} 9/0
[Ac As]
+25.7 +23.8 89 +35 +35 очень
душно
1007.8 1007.5
21 13.01 З 2 7000 м в посл. час дождь 10/10
[Cu hum As op]
+26.8 +24.9 89 +38 +38 очень
душно
1007.6 1007.3
00 14.01 Ю 1 10 км {дождь} 10/8
[Cu hum As op Ci sp]
+26.0 +24.1 89 +36 +36 очень
душно
1008.7 1008.4 +25.1
03 14.01 ЮЗ 2 11 км 9/5
[Cu hum Ac trans Ci sp]
+30.0 +24.8 74 +43 +48 опасность
перегрева
1008.7 1008.4
06 14.01 СЗ 5 10 км 9/0
[Cu med, cong Ac trans Ci sp]
+32.8 +23.6 59 +44 +49 опасность
перегрева
1007.1 1006.8
09 14.01 СЗ 4 10 км 8/4 600 м
[Cu hum Ac trans Ci fib]
+32.0 +25.7 69 +47 +48 опасность
перегрева
1005.8 1005.4
12 14.01 ЮЗ 1 8000 м слабый дождь 10/0
[Cu Sc As op]
+25.0 +24.4 96 +35 +35 очень
душно
1008.9 1008.5 +34.1
15 14.01 ЮЗ 2 8000 м слабый дождь 10/10
[Sc diur, vesp As op]
+24.8 +22.6 88 +33 +33 очень
душно
1009.7 1009.4
18 14.01 штиль 0 8000 м в посл. час дождь 10/6 600 м
[Sc diur, vesp As op]
+24.2 +23.6 96 +33 +33 очень
душно
1008.3 1007.9 0.6
21 14.01 штиль 0 8000 м слабый дождь 10/10
[Sc diur, vesp As op]
+24.6 +24.0 96 +34 +34 очень
душно
1008.5 1008.1
00 15.01 Ю 2 8000 м {дождь} 9/4 600 м
[Cu hum Ac As Cs]
+25.0 +24.0 94 +34 +36 очень
душно
1009.3 1008.9 +24.0 51
03 15.01 С 2 10 км 10/5 600 м
[Cu hum Ac As]
+28.7 +24.8 79 +41 +44 опасность
перегрева
1009.8 1009.4
06 15.01 СЗ 3 10 км 10/0 300 м
[Cu med, cong As op]
+30.2 +23.8 69 +42 +44 опасность
перегрева
1008.6 1008.2
09 15.01 С 3 10 км 8/0
[Cu med, cong As op Ci sp]
+30.6 +24.9 72 +44 +46 опасность
перегрева
1006.6 1006.2
12 15.01 В 2 9000 м в посл. час дождь 10/0
[Cu med, cong As op]
+28.6 +25.3 82 +42 +42 опасность
перегрева
1007.7 1007.3 +31.7
15 15.01 Ю 2 8000 м {дождь} 10/6 570 м
[Cu Sc As op]
+28.3 +25.6 85 +42 +42 опасность
перегрева
1008.5 1008.2
18 15.01 штиль 0 8000 м слабый дождь 10/0
[Cb cap As op]
+26.6 +24.7 89 +38 +38 очень
душно
1007.6 1007.3
21 15.01 штиль 0 8000 м {дождь} 10/5 600 м
[Sc As op]
+26.2 +24.7 91 +37 +37 очень
душно
1007.6 1007.3 0.4
00 16.01 С 2 9000 м {дождь} 10/0
[Cu med, cong As op]
+25.7 +24.0 90 +35 +36 очень
душно
1010.0 1009.6 +24.9
03 16.01 З 1 9000 м слабый дождь 10/0
[Cu Sc As op]
+26.2 +24.3 89 +36 +41 очень
душно
1010.0 1009.7
06 16.01 СЗ 3 9000 м {дождь} 10/0
[Cu Sc As trans]
+29.4 +23.9 72 +40 +47 очень
душно
1007.9 1007.6
09 16.01 СЗ 3 9000 м 9/0
[Cu med, cong Ac As Ci fib]
+29.8 +24.6 74 +42 +44 опасность
перегрева
1006.7 1006.4
12 16.01 Ю 2 5000 м слабый дождь 10/0
[Cu med, cong As op]
+26.8 +24.4 87 +38 +38 очень
душно
1008.9 1008.5 +31.0
15 16.01 ЮЗ 2 9000 м 8/4 600 м
[Cu hum As trans Ci fib]
+25.2 +23.3 89 +34 +34 очень
душно
1009.3 1009.0
18 16.01 штиль 0 8000 м 5/3 600 м
[Cu hum As trans Ci fib]
+25.0 +23.1 89 +33 +33 очень
душно
1008.0 1007.6
21 16.01 штиль 0 8000 м 5/3 600 м
[Cu hum As trans Ci fib]
+24.5 +23.0 91 +32 +32 очень
душно
1008.4 1008.1
00 17.01 З 1 9000 м 8/3 600 м
[Cu hum As trans Ci fib]
+25.6 +23.7 89 +35 +37 очень
душно
1009.5 1009.2 +24.4
03 17.01 С 2 9000 м 9/0
[Cu med, cong Ac As]
+29.2 +24.2 74 +41 +48 опасность
перегрева
1010.6 1010.2
06 17.01 С 3 8000 м в посл. час дождь 9/8
[Cu Sc As op]
+29.2 +25.7 81 +43 +45 опасность
перегрева
1008.8 1008.4

 

Местоположение метеостанции Surabaya Gedangan (Индонезия): широта -7.22 долгота 113.71 высота над уровнем моря 113 м.

В архиве по умолчанию представлена погода в Surabaya Gedangan за последнюю неделю. Архивные данные за месяц целиком и за предыдущие месяцы, начиная с января 2011 года, Вы можете получить, выбрав интересующий диапазон дат из раскрывающегося списка и нажав кнопку "Ввод!".

Внимание! Время в таблицах - всемирное. Для получения местного времени необходимо прибавить поправку, которая в Surabaya Gedangan равна 7 ч.

Ветер - указаны скорость ветра в м/с - средняя за 10 мин, порывы в срок и между сроками (в фигурных скобках) и направление, откуда дует ветер: С - северный, СВ - северо-восточный, В - восточный, ЮВ - юго-восточный, Ю - южный, ЮЗ - юго-западный, З - западный, СЗ - северо-западный.
Видимость - горизонтальная дальность видимости в метрах или километрах. При видимости от 1 до 10 км при отсутствии осадков обычно наблюдается дымка, при ухудшении видимости до 1 км и менее - туман. В сухую погоду видимость может ухудшаться дымом, пылью или мглою.
Явления - указаны атмосферные явления, наблюдавшиеся в срок или в последний час перед сроком; фигурными скобками обозначены явления, наблюдавшиеся между сроками (за 1-3 часа до срока); квадратными скобками обозначены град или гололедные отложения с указанием их диаметра в мм.
Облачность - указаны через наклонную черту общая и нижняя облачность в баллах и высота нижней границы облаков в метрах; квадратными скобками обозначены формы облаков: Ci - перистые, Cs - перисто-слоистые, Cc - перисто-кучевые, Ac - высококучевые, As - высокослоистые, Sc - слоисто-кучевые, Ns - слоисто-дождевые, Cu - кучевые, Cb - кучево-дождевые. Подробнее классификацию облаков см. в Атласе облаков (PDF).
T - Температура воздуха - температура, измеренная на высоте 2 м над землей.
Td - Температура точки росы - температура, при понижении до которой содержащийся в воздухе водяной пар достигнет насыщения.
f - Относительная влажность воздуха - влажноcть воздуха, измеренная на высоте 2 м над землей.
Te - Эффективная температура - температура, которую ощущает одетый по сезону человек в тени. Характеристика душности погоды. При расчете учитывается влияние влажности воздуха и скорости ветра на теплоощущения человека.
Tes - Эффективная температура на солнце - температура, которую ощущает человек, с поправкой на солнечный нагрев. Характеристика знойности погоды. Зависит от высоты солнца над горизонтом, облачности и скорости ветра. Ночью, в пасмурную погоду, а также при ветре 12 м/с и более поправка равна нулю.
P - Атмосферное давление - приведенное к уровню моря атмосферное давление.
Po - Атмосферное давление - измеренное на уровне метеостанции атмосферное давление.
Tmin - Минимальная температура - минимум температуры воздуха на высоте 2 м над землей.
Tmax - Максимальная температура - максимум температуры воздуха на высоте 2 м над землей.
R - Количество осадков - Количество выпавших осадков, мм. При наведении курсора мыши на число - период времени, за который выпало указанное количество осадков.
S - Снежный покров - Высота снежного покрова, см. При наведении курсора мыши на число - состояние снежного покрова и степень покрытия местности в баллах.